[[{"header":{"parameterUnit":"m.s-1","parameterCategory":1,"la1":30.2991,"la2":30.254,"lo1":-89.0895,"lo2":-89.0444,"dy":0.0017,"dx":0.0017,"nx":28,"ny":28,"refTime":"2024-04-21T21:00:00:Z","depth":0,"parameterNumber":2,"parameterNumberName":"U-component_of_WINDS"},"data":[0,0,0,0,0,0,0,0,0,0,0,0,0,0,0,0,0,0,0,0,0,0,0,0,0,0,0,0,0,0,0,0,0,0,0,0,0,0,0,0,0,0,0,0,0,0,0,0,0,0,0,0,0,0,0,0,0,0,-2.0381,-2.0381,0,-2.0434,-2.0434,-2.0435,-2.0341,-2.0338,-2.0335,-2.0332,-2.0388,-2.0392,-2.0397,0,0,0,0,0,0,0,0,0,0,0,0,0,-2.0199,-2.0203,-2.0381,-2.0381,-2.0382,-2.0434,-2.0434,-2.0435,-2.0342,-2.0338,-2.0334,-2.0331,-2.0386,-2.0392,-2.0397,0,0,0,0,0,0,0,0,0,0,0,0,0,-2.0268,-2.0204,-2.0381,-2.0342,-2.0339,-2.0434,-2.0434,-2.0435,-2.0343,-2.0338,-2.0333,-2.0329,-2.0385,-2.0391,-2.0398,-2.0534,0,0,-2.0418,-2.0421,0,0,0,0,0,0,0,0,-2.0264,-2.0274,-2.0347,-2.0345,-2.0341,-2.0376,-2.0391,-2.0468,-2.0344,-2.0341,-2.0332,-2.0326,-2.0388,-2.0394,-2.0414,-2.0536,-2.0539,-2.0419,-2.0423,-2.0425,-2.0427,0,0,0,0,0,0,0,-2.0259,-2.0271,-2.0402,-2.0348,-2.0345,-2.0322,-2.0326,-2.0405,-2.0391,-2.0341,-2.0334,-2.0342,-2.0385,-2.0408,-2.0415,-2.0539,-2.0418,-2.0424,-2.0428,-2.0431,-2.0774,-2.0779,0,0,0,0,0,0,-2.0259,-2.0268,-2.04,-2.0403,-2.029,-2.0329,-2.0334,-2.037,-2.0389,-2.0388,-2.0346,-2.0337,-2.0399,-2.0407,-2.0417,-2.0577,-2.0425,-2.0432,-2.0435,-2.0769,-2.0775,-2.0781,0,0,0,0,0,0,-2.0256,-2.0272,-2.0398,-2.0334,-2.0348,-2.0337,-2.0378,-2.0373,-2.0396,-2.0393,-2.039,-2.0372,-2.0396,-2.0407,-2.0505,-2.0578,-2.0435,-2.0441,-2.0763,-2.0771,-2.0778,-2.09,0,0,0,0,0,0,-2.0251,-2.0271,-2.0323,-2.0336,-2.0352,-2.0486,-2.0382,-2.0378,-2.0407,-2.0397,-2.0417,-2.0415,-2.0393,-2.0495,-2.0512,-2.0584,-2.0446,-2.0757,-2.0767,-2.0776,-2.0889,-2.0911,-2.0929,0,0,0,0,0,-2.0245,-2.0355,-2.0326,-2.0342,-2.0416,-2.049,-2.05,-2.0471,-2.0414,-2.0466,-2.0463,-2.0415,-2.0567,-2.0506,-2.0524,-2.06,-2.0752,-2.0764,-2.0775,-2.088,-2.0907,-2.0929,0,0,0,0,0,0,-2.0352,-2.0357,-2.0324,-2.0442,-2.0467,-2.0474,-2.0539,-2.05,-2.0542,-2.053,-2.0493,-2.0498,-2.0604,-2.0611,-2.0543,-2.0731,-2.065,-2.0665,-2.0724,-2.0749,-2.0768,-2.0765,-2.0451,0,0,0,0,0,-2.039,-2.0449,-2.0449,-2.0554,-2.0567,-2.0551,-2.0583,-2.0558,-2.0582,-2.0592,-2.0597,-2.0623,-2.0676,-2.0712,-2.0761,-2.0888,-2.0892,-2.0949,-2.0969,-2.0985,-2.1,-2.1068,-2.1094,-2.0819,-2.0819,-2.0819,0,0,-2.0468,-2.0477,-2.0518,-2.0576,-2.0592,-2.0654,-2.0561,-2.0631,-2.0678,-2.0603,-2.0696,-2.07,-2.0726,-2.0839,-2.0889,-2.0848,-2.1076,-2.1,-2.1013,-2.1019,-2.1083,-2.1109,-2.1132,-2.0827,-2.0825,-2.0824,0,0,-2.0643,-2.0656,-2.0744,-2.0762,-2.0787,-2.0775,-2.0796,-2.0809,-2.0809,-2.0901,-2.0847,-2.0901,-2.0993,-2.1014,-2.1037,-2.1217,-2.1174,-2.1233,-2.1339,-2.1405,-2.1427,-2.1446,-2.1512,-2.1535,-2.1247,-2.1248,-2.1248,0,-2.0738,-2.083,-2.0795,-2.0869,-2.0896,-2.083,-2.092,-2.0938,-2.0978,-2.0999,-2.0951,-2.1065,-2.1078,-2.1195,-2.1239,-2.1259,-2.1283,-2.1233,-2.1426,-2.1445,-2.1463,-2.1525,-2.1549,-2.1255,-2.1254,-2.1253,-2.1253,0,-2.0946,-2.101,-2.1078,-2.1118,-2.1152,-2.1234,-2.1211,-2.125,-2.1222,-2.1215,-2.1309,-2.1321,-2.1371,-2.1397,-2.137,-2.151,-2.1484,-2.1432,-2.135,-2.1497,-2.1554,-2.1578,-2.1265,-2.1263,-2.1261,-2.1259,0,0,-2.1194,-2.1211,-2.1237,-2.1254,-2.1275,-2.1325,-2.1402,-2.145,-2.1485,-2.1514,-2.1579,-2.1657,-2.1609,-2.1635,-2.1609,-2.1668,-2.1811,-2.1608,-2.1608,-2.1647,-2.1966,-2.2007,-2.2035,-2.178,-2.1785,-2.1788,-2.1965,0,-2.1369,-2.1504,-2.1473,-2.1606,-2.1665,-2.1601,-2.1669,-2.1689,-2.1684,-2.1733,-2.1727,-2.1784,-2.1715,-2.173,-2.1785,-2.1782,-2.1875,-2.1768,-2.1842,-2.1845,-2.184,-2.2065,-2.2108,-2.2274,-2.1987,-2.1991,-2.1993,0,-2.1593,-2.1629,-2.1768,-2.1779,-2.1802,-2.1864,-2.1905,-2.1952,-2.1974,-2.1966,-2.1993,-2.1956,-2.2033,-2.1947,-2.2052,-2.1981,-2.2008,-2.2011,-2.2017,-2.2025,-2.193,-2.2081,-2.2327,-2.2352,-2.2028,-2.2025,-2.2023,0,-2.1762,-2.1846,-2.1939,-2.1955,-2.197,-2.2015,-2.2023,-2.2039,-2.207,-2.2105,-2.2124,-2.2169,-2.2194,-2.2228,-2.2204,-2.2143,-2.2314,-2.2226,-2.231,-2.2311,-2.2351,-2.235,-2.2607,-2.2365,-2.2365,-2.2365,-2.2364,0,-2.1963,-2.205,-2.2015,-2.2074,-2.2169,-2.2132,-2.2228,-2.2229,-2.2243,-2.23,-2.2247,-2.2301,-2.2264,-2.2316,-2.2296,-2.2387,-2.2398,-2.2394,-2.2389,-2.2401,-2.2402,-2.2421,-2.2409,-2.2371,-2.237,-2.2368,-2.2367,0,-2.217,-2.2149,-2.2248,-2.2252,-2.2255,-2.2326,-2.233,-2.2384,-2.2373,-2.2446,-2.246,-2.2444,-2.2502,-2.248,-2.2541,-2.2528,-2.2644,-2.2622,-2.2637,-2.2633,-2.2719,-2.2712,-2.3,-2.3036,-2.2769,-2.2771,-2.2774,0,-2.23,-2.2366,-2.2378,-2.2411,-2.2423,-2.2479,-2.2509,-2.2474,-2.2508,-2.2536,-2.2587,-2.2639,-2.2679,-2.2774,-2.2768,-2.2814,-2.2794,-2.2891,-2.2801,-2.281,-2.2797,-2.2795,-2.2802,-2.2911,-2.2914,-2.2916,-2.2918,0,-2.2535,-2.2521,-2.2567,-2.261,-2.2647,-2.2679,-2.2706,-2.2737,-2.2703,-2.2744,-2.2801,-2.2833,-2.2894,-2.2947,-2.2988,-2.2995,-2.2952,-2.2946,-2.2968,-2.2983,-2.299,-2.2989,-2.2689,-2.294,-2.2938,-2.2937,-2.2935,-2.2935,-2.2709,-2.2765,-2.2781,-2.2834,-2.285,-2.2876,-2.2927,-2.2921,-2.2969,-2.3016,-2.2992,-2.3059,-2.3077,-2.3127,-2.314,-2.3192,-2.3154,-2.3186,-2.3195,-2.3204,-2.3216,-2.2979,-2.3199,-2.3198,-2.3198,-2.3197,-2.3197,0,-2.2943,-2.295,-2.2998,-2.3037,-2.3078,-2.3031,-2.3058,-2.3096,-2.3156,-2.3176,-2.3216,-2.3282,-2.3332,-2.3329,-2.3375,-2.3417,-2.3398,-2.3431,-2.3429,-2.3431,-2.3247,-2.3223,-2.3445,-2.3445,-2.3445,-2.3445,-2.3445,-2.3445,-2.3069,-2.3161,-2.3149,-2.3247,-2.3253,-2.3318,-2.3338,-2.3361,-2.3377,-2.3453,-2.3494,-2.3491,-2.3501,-2.3548,-2.3592,-2.3589,-2.361,-2.365,-2.3641,-2.3469,-2.3444,-2.3421,-2.3399,-2.3654,-2.3655,-2.3821,-2.3823,-2.3824]},{"header":{"parameterUnit":"m.s-1","parameterCategory":1,"la1":30.2991,"la2":30.254,"lo1":-89.0895,"lo2":-89.0444,"dy":0.0017,"dx":0.0017,"nx":28,"ny":28,"refTime":"2024-04-21T21:00:00:Z","depth":0,"parameterNumber":3,"parameterNumberName":"V-component_of_WINDS"},"data":[0,0,0,0,0,0,0,0,0,0,0,0,0,0,0,0,0,0,0,0,0,0,0,0,0,0,0,0,0,0,0,0,0,0,0,0,0,0,0,0,0,0,0,0,0,0,0,0,0,0,0,0,0,0,0,0,0,0,-7.0028,-7.0029,0,-7.0144,-7.0145,-7.0146,-7.004,-7.0035,-7.0031,-7.0027,-7.0141,-7.0147,-7.0154,0,0,0,0,0,0,0,0,0,0,0,0,0,-6.9707,-6.9713,-7.0028,-7.0029,-7.0031,-7.0144,-7.0145,-7.0147,-7.004,-7.0035,-7.003,-7.0025,-7.0138,-7.0147,-7.0155,0,0,0,0,0,0,0,0,0,0,0,0,0,-6.9837,-6.9715,-7.0027,-6.9991,-6.9989,-7.0143,-7.0145,-7.0147,-7.0042,-7.0035,-7.0029,-7.0023,-7.0136,-7.0146,-7.0156,-7.035,0,0,-7.0188,-7.0193,0,0,0,0,0,0,0,0,-6.983,-6.9849,-6.9995,-6.9994,-6.9992,-7.0071,-7.0074,-7.0215,-7.0043,-7.0022,-7.0027,-7.002,-7.0122,-7.0133,-7.0169,-7.0356,-7.036,-7.0189,-7.0196,-7.02,-7.0203,0,0,0,0,0,0,0,-6.9821,-6.9843,-7.0073,-6.9997,-6.9995,-6.9967,-6.9978,-7.01,-7.0106,-7.0023,-7.0015,-7.0031,-7.012,-7.0159,-7.0171,-7.0362,-7.0189,-7.0198,-7.0205,-7.0209,-7.0711,-7.0718,0,0,0,0,0,0,-6.9816,-6.9836,-7.007,-7.0077,-6.9893,-6.9978,-6.9991,-7.0052,-7.0105,-7.0107,-7.0036,-7.0026,-7.0145,-7.0159,-7.0175,-7.0404,-7.02,-7.021,-7.0216,-7.0704,-7.0713,-7.072,0,0,0,0,0,0,-6.981,-6.9838,-7.0065,-6.9955,-6.9981,-6.999,-7.006,-7.0058,-7.0097,-7.0115,-7.0115,-7.0076,-7.014,-7.016,-7.0307,-7.0407,-7.0215,-7.0224,-7.0696,-7.0707,-7.0716,-7.0866,0,0,0,0,0,0,-6.9801,-6.9837,-6.9912,-6.9957,-6.9988,-7.0198,-7.0066,-7.0065,-7.0116,-7.0103,-7.0152,-7.0154,-7.0136,-7.0292,-7.0318,-7.0418,-7.0233,-7.0687,-7.0701,-7.0713,-7.0852,-7.088,-7.0905,0,0,0,0,0,-6.979,-6.9949,-6.9917,-6.9945,-7.0083,-7.0204,-7.0221,-7.02,-7.0125,-7.0199,-7.0211,-7.0152,-7.0392,-7.0308,-7.0336,-7.0441,-7.0681,-7.0697,-7.0712,-7.0841,-7.0875,-7.0904,0,0,0,0,0,0,-6.9914,-6.9954,-6.9919,-7.0097,-7.0149,-7.0186,-7.028,-7.0237,-7.0309,-7.0294,-7.0262,-7.0274,-7.0429,-7.0449,-7.0356,-7.063,-7.0524,-7.0546,-7.0612,-7.0645,-7.067,-7.0662,-7.0241,0,0,0,0,0,-6.9962,-7.0059,-7.0088,-7.0243,-7.0271,-7.0271,-7.0323,-7.0302,-7.0353,-7.0374,-7.0396,-7.0446,-7.0531,-7.0589,-7.0669,-7.0854,-7.0862,-7.094,-7.0966,-7.0987,-7.1007,-7.1104,-7.1139,-7.0772,-7.0772,-7.0772,0,0,-7.0062,-7.0096,-7.016,-7.0269,-7.0306,-7.0405,-7.029,-7.04,-7.0473,-7.0389,-7.0531,-7.0549,-7.0602,-7.0769,-7.0843,-7.079,-7.111,-7.1007,-7.1024,-7.1032,-7.1124,-7.1159,-7.119,-7.0783,-7.0781,-7.0779,0,0,-7.0296,-7.0332,-7.0465,-7.0504,-7.0562,-7.0561,-7.0593,-7.0638,-7.0647,-7.0788,-7.0727,-7.0811,-7.0961,-7.1001,-7.1041,-7.1289,-7.1237,-7.1315,-7.1452,-7.1547,-7.1576,-7.1602,-7.1689,-7.1721,-7.1335,-7.1335,-7.1335,0,-7.0413,-7.0562,-7.0537,-7.0653,-7.0701,-7.0632,-7.0764,-7.0803,-7.0884,-7.0918,-7.0858,-7.1043,-7.1074,-7.1249,-7.1309,-7.1344,-7.1378,-7.131,-7.1575,-7.16,-7.1623,-7.1706,-7.1739,-7.1344,-7.1343,-7.1342,-7.1341,0,-7.0702,-7.0807,-7.0906,-7.0988,-7.1048,-7.1171,-7.1162,-7.1225,-7.1199,-7.1204,-7.1347,-7.1381,-7.1467,-7.1507,-7.1481,-7.1678,-7.1643,-7.158,-7.1472,-7.1668,-7.1745,-7.1776,-7.1357,-7.1354,-7.1351,-7.1349,0,0,-7.1018,-7.1084,-7.1121,-7.1156,-7.1214,-7.1293,-7.1412,-7.1497,-7.1552,-7.1609,-7.1706,-7.1834,-7.1775,-7.1821,-7.1799,-7.1883,-7.2075,-7.1809,-7.1809,-7.1856,-7.2292,-7.2339,-7.2377,-7.2041,-7.2047,-7.2052,-7.2287,0,-7.1253,-7.1462,-7.1442,-7.1639,-7.1734,-7.1669,-7.1771,-7.1817,-7.1825,-7.1904,-7.1911,-7.2002,-7.1918,-7.1945,-7.2025,-7.2035,-7.2162,-7.2018,-7.213,-7.2134,-7.2119,-7.2417,-7.2468,-7.2688,-7.2317,-7.2322,-7.2326,0,-7.1556,-7.1626,-7.1833,-7.1876,-7.1914,-7.2008,-7.2084,-7.2161,-7.2211,-7.221,-7.2261,-7.2224,-7.234,-7.223,-7.2389,-7.2292,-7.2336,-7.2348,-7.2355,-7.2365,-7.2242,-7.2434,-7.2758,-7.2791,-7.2373,-7.237,-7.2366,0,-7.1764,-7.191,-7.2052,-7.2085,-7.2138,-7.2205,-7.223,-7.2273,-7.2325,-7.2391,-7.2423,-7.2501,-7.2544,-7.2603,-7.2587,-7.2509,-7.275,-7.2639,-7.2751,-7.2752,-7.2805,-7.2802,-7.314,-7.2834,-7.2834,-7.2833,-7.2832,0,-7.2029,-7.2158,-7.2146,-7.2234,-7.2376,-7.2351,-7.2491,-7.2507,-7.2546,-7.2634,-7.2581,-7.2664,-7.2638,-7.2719,-7.2707,-7.284,-7.286,-7.2861,-7.2856,-7.2866,-7.2865,-7.2894,-7.2878,-7.2842,-7.284,-7.2838,-7.2837,0,-7.2286,-7.2284,-7.2435,-7.2473,-7.2486,-7.2588,-7.262,-7.2701,-7.2704,-7.2815,-7.284,-7.2844,-7.2936,-7.2926,-7.3029,-7.3021,-7.3186,-7.3163,-7.317,-7.3165,-7.3277,-7.3267,-7.3646,-7.3694,-7.3358,-7.3361,-7.3364,0,-7.2455,-7.2553,-7.2602,-7.2658,-7.2688,-7.2779,-7.2832,-7.281,-7.2867,-7.293,-7.3003,-7.3091,-7.3161,-7.3311,-7.3322,-7.34,-7.3378,-7.3505,-7.3389,-7.3395,-7.3379,-7.3373,-7.3382,-7.3528,-7.3532,-7.3535,-7.3538,0,-7.2755,-7.2749,-7.2828,-7.2908,-7.2973,-7.3034,-7.3089,-7.3138,-7.312,-7.3187,-7.3282,-7.3336,-7.3442,-7.3529,-7.3603,-7.3625,-7.3579,-7.3574,-7.3604,-7.3615,-7.3615,-7.3616,-7.3232,-7.3565,-7.3563,-7.3561,-7.3559,-7.3558,-7.2973,-7.3056,-7.3104,-7.3194,-7.3233,-7.3286,-7.3364,-7.3377,-7.3456,-7.3542,-7.3523,-7.363,-7.3674,-7.3769,-7.3799,-7.388,-7.3834,-7.3877,-7.3888,-7.39,-7.3912,-7.3602,-7.3894,-7.3893,-7.3892,-7.3891,-7.3891,0,-7.3269,-7.3296,-7.338,-7.3459,-7.3529,-7.3481,-7.3539,-7.36,-7.3695,-7.3742,-7.3811,-7.392,-7.4004,-7.4021,-7.41,-7.4162,-7.4143,-7.4184,-7.4179,-7.4185,-7.395,-7.3916,-7.4198,-7.4198,-7.4198,-7.4198,-7.4198,-7.4198,-7.3432,-7.357,-7.357,-7.3726,-7.3751,-7.3857,-7.3894,-7.3942,-7.3979,-7.4103,-7.4173,-7.4184,-7.4218,-7.4299,-7.4374,-7.4376,-7.4408,-7.4457,-7.4452,-7.4232,-7.4201,-7.4172,-7.414,-7.4465,-7.4465,-7.4679,-7.4681,-7.4683]}]]